Simultaneous Nadir Overpasses (SNOs) Predictions

Prediction of SNOs between NOAA-20 and AQUA Satellite Orbit:

Table of predicted SNOs for the next 14.0 days since TLE Epoch: 4/30/2022
Index Date (NOAA-20) Time (NOAA-20) Lat,Lon (NOAA-20) SZA (NOAA-20 ) Date (AQUA) Time (AQUA) Lat,Lon (AQUA) SZA (AQUA ) Distance(km) Time Diff (sec)
1 05/02/2022 10:16:18 77.62, -88.69 79.87 05/02/2022 10:16:58 77.61, -88.79 79.87 2.69 40
2 05/02/2022 11:06:48 -78.25, 81.84 101.01 05/02/2022 11:06:11 -78.24, 81.72 100.95 2.73 37
3 05/05/2022 01:42:39 -77.20,-142.13 100.34 05/05/2022 01:43:50 -77.20,-142.13 100.40 0.32 71
4 05/05/2022 02:33:07 77.88, 28.35 78.74 05/05/2022 02:33:00 77.88, 28.38 78.74 0.59 7
5 05/07/2022 17:59:22 -77.72, -24.01 101.77 05/07/2022 17:59:46 -77.72, -24.03 101.79 0.38 24
6 05/07/2022 18:49:51 78.33, 146.52 77.37 05/07/2022 18:48:57 78.33, 146.50 77.42 0.55 54
7 05/10/2022 09:25:38 77.44, -76.83 77.90 05/10/2022 09:26:31 77.45, -76.81 77.85 0.52 53
8 05/10/2022 10:16:08 -78.09, 93.65 102.99 05/10/2022 10:15:44 -78.09, 93.67 102.98 0.52 24
9 05/13/2022 01:42:17 78.07, 41.97 76.39 05/13/2022 01:42:22 78.06, 41.87 76.41 2.65 5



Historial Predications of SNOs between NOAA-20 and AQUA
